Weather History for Sleetmute, AK

Change the Weather History Date:

Wednesday, July 3, 2013

  Actual Average Record
Temperature  
Mean Temperature 48 °F -  
Max Temperature 51 °F 65 °F 75 °F (2014)
Min Temperature 44 °F 46 °F 42 °F (2012)
Degree Days  
Heating Degree Days 18    
Moisture  
Dew Point 45 °F    
Average Humidity 87    
Maximum Humidity 93    
Minimum Humidity 76    
Precipitation  
Precipitation 0.04 in - - ()
Sea Level Pressure  
Sea Level Pressure 29.87 in    
Wind  
Wind Speed 7 mph (SSE)    
Max Wind Speed 10 mph    
Max Gust Speed 20 mph    
Visibility 10 miles    
Events      
Averages and records for this station are not official NWS values.
T = Trace of Precipitation, MM = Missing Value Source: NWS Daily Summary

Daily Weather History Graph

Daily Weather History Graph

Search for Another Location

Airport:

Trip Planner

Search our weather history database for the weather conditions in past years. The results will help you decide how hot, cold, wet, or windy it might be!

Date:

Astronomy

Jul. 03, 2013 Rise Set
Actual Time 4:52 AM AKDT 12:11 AM AKDT
Civil Twilight 3:05 AM AKDT 2:00 AM AKDT
Nautical Twilight Sun does not rise Sun does not rise
Astronomical Twilight Sun does not rise Sun does not rise
Moon 2:28 AM AKDT (7/3) 7:53 PM AKDT (7/3)
Length of Visible Light 22h 55m
Length of Day
19h 18m
Waning Crescent, 17% of the Moon is Illuminated
Jul 3
Waning Crescent
Jul 7
New
Jul 15
First Quarter
Jul 22
Full
Jul 29
Last Quarter

Hourly Weather History & Observations

Time (AKDT) Temp. Windchill Dew Point Humidity Pressure Visibility Wind Dir Wind Speed Gust Speed Precip Events Conditions
12:16 AM 48.2 °F - 44.6 °F 87% 29.78 in 10.0 mi SSE 5.8 mph - N/A   Overcast
12:36 AM 48.2 °F - 44.6 °F 87% 29.79 in 10.0 mi South 8.1 mph - N/A   Overcast
12:56 AM 46.4 °F 42.9 °F 44.6 °F 93% 29.79 in 10.0 mi SSE 6.9 mph - N/A   Mostly Cloudy
1:16 AM 46.4 °F 42.9 °F 44.6 °F 93% 29.80 in 10.0 mi SSE 6.9 mph - N/A   Overcast
1:36 AM 46.4 °F 42.9 °F 44.6 °F 93% 29.80 in 10.0 mi South 6.9 mph - N/A   Mostly Cloudy
2:16 AM 46.4 °F 43.5 °F 42.8 °F 87% 29.81 in 8.0 mi South 5.8 mph - N/A   Overcast
2:36 AM 46.4 °F 43.5 °F 42.8 °F 87% 29.82 in 10.0 mi South 5.8 mph - N/A   Overcast
2:56 AM 46.4 °F 42.4 °F 42.8 °F 87% 29.82 in 10.0 mi SSE 8.1 mph - N/A   Overcast
3:16 AM 46.4 °F 43.5 °F 42.8 °F 87% 29.83 in 10.0 mi SE 5.8 mph - N/A   Overcast
3:36 AM 46.4 °F 43.5 °F 42.8 °F 87% 29.83 in 10.0 mi South 5.8 mph - N/A   Overcast
4:36 AM 46.4 °F 44.3 °F 42.8 °F 87% 29.84 in 10.0 mi South 4.6 mph - N/A   Overcast
4:56 AM 46.4 °F 45.2 °F 42.8 °F 87% 29.84 in 10.0 mi South 3.5 mph - N/A   Overcast
5:36 AM 46.4 °F 42.9 °F 42.8 °F 87% 29.85 in 10.0 mi SSE 6.9 mph - N/A   Overcast
5:56 AM 46.4 °F 43.5 °F 42.8 °F 87% 29.85 in 10.0 mi SSE 5.8 mph - N/A   Overcast
6:16 AM 44.6 °F 41.4 °F 42.8 °F 93% 29.85 in 10.0 mi South 5.8 mph - N/A   Overcast
6:36 AM 44.6 °F 40.2 °F 42.8 °F 93% 29.85 in 10.0 mi SSE 8.1 mph - N/A   Overcast
6:56 AM 44.6 °F 40.2 °F 42.8 °F 93% 29.85 in 10.0 mi SSE 8.1 mph - N/A   Overcast
7:16 AM 44.6 °F 41.4 °F 42.8 °F 93% 29.86 in 10.0 mi South 5.8 mph - N/A   Overcast
7:36 AM 44.6 °F 42.2 °F 42.8 °F 93% 29.86 in 10.0 mi South 4.6 mph - N/A   Overcast
7:56 AM 46.4 °F 42.4 °F 42.8 °F 87% 29.86 in 10.0 mi SSE 8.1 mph - N/A   Overcast
8:36 AM 46.4 °F 41.9 °F 42.8 °F 87% 29.86 in 10.0 mi SSE 9.2 mph - N/A   Overcast
8:56 AM 46.4 °F 43.5 °F 42.8 °F 87% 29.87 in 10.0 mi South 5.8 mph - N/A   Overcast
9:16 AM 46.4 °F 42.4 °F 42.8 °F 87% 29.88 in 10.0 mi South 8.1 mph - N/A   Overcast
9:36 AM 46.4 °F 42.9 °F 42.8 °F 87% 29.88 in 10.0 mi South 6.9 mph - N/A   Overcast
9:56 AM 46.4 °F 43.5 °F 42.8 °F 87% 29.89 in 10.0 mi SSE 5.8 mph - N/A   Overcast
10:16 AM 46.4 °F 42.9 °F 42.8 °F 87% 29.89 in 10.0 mi South 6.9 mph - N/A   Overcast
10:56 AM 46.4 °F 42.4 °F 42.8 °F 87% 29.89 in 10.0 mi SSE 8.1 mph - N/A   Overcast
11:16 AM 46.4 °F 42.9 °F 42.8 °F 87% 29.89 in 10.0 mi SSE 6.9 mph - N/A   Overcast
11:36 AM 48.2 °F - 42.8 °F 82% 29.89 in 10.0 mi South 6.9 mph - N/A   Overcast
12:16 PM 48.2 °F - 42.8 °F 82% 29.90 in 10.0 mi South 8.1 mph - N/A   Overcast
12:36 PM 48.2 °F - 42.8 °F 82% 29.90 in 10.0 mi South 9.2 mph - N/A   Overcast
12:56 PM 48.2 °F - 44.6 °F 87% 29.90 in 10.0 mi SSE 8.1 mph - N/A   Overcast
1:16 PM 50.0 °F - 44.6 °F 82% 29.90 in 10.0 mi SSE 8.1 mph 19.6 mph N/A   Overcast
1:36 PM 50.0 °F - 44.6 °F 82% 29.92 in 10.0 mi South 6.9 mph 17.3 mph N/A   Overcast
1:56 PM 50.0 °F - 44.6 °F 82% 29.92 in 10.0 mi SSE 6.9 mph - N/A   Overcast
2:16 PM 50.0 °F - 44.6 °F 82% 29.91 in 10.0 mi SSE 8.1 mph 17.3 mph N/A   Overcast
2:56 PM 51.8 °F - 44.6 °F 76% 29.91 in 10.0 mi South 8.1 mph 17.3 mph N/A   Overcast
3:16 PM 51.8 °F - 46.4 °F 82% 29.91 in 10.0 mi SSE 10.4 mph - N/A   Overcast
3:36 PM 51.8 °F - 46.4 °F 82% 29.91 in 10.0 mi South 6.9 mph - N/A   Mostly Cloudy
3:56 PM 51.8 °F - 48.2 °F 88% 29.91 in 10.0 mi SSE 9.2 mph - N/A   Overcast
4:16 PM 51.8 °F - 46.4 °F 82% 29.90 in 10.0 mi SE 5.8 mph - N/A   Mostly Cloudy
4:36 PM 51.8 °F - 48.2 °F 88% 29.90 in 10.0 mi SSE 6.9 mph - N/A   Mostly Cloudy
4:56 PM 51.8 °F - 48.2 °F 88% 29.90 in 10.0 mi SSE 6.9 mph - 0.01 in   Overcast
5:36 PM 51.8 °F - 48.2 °F 88% 29.89 in 10.0 mi SSE 8.1 mph - 0.02 in   Mostly Cloudy
5:56 PM 51.8 °F - 48.2 °F 88% 29.89 in 10.0 mi SSE 9.2 mph - 0.02 in   Overcast
6:16 PM 51.8 °F - 48.2 °F 88% 29.88 in 10.0 mi SE 5.8 mph - N/A   Mostly Cloudy
6:36 PM 51.8 °F - 46.4 °F 82% 29.88 in 10.0 mi SE 5.8 mph - N/A   Overcast
6:56 PM 51.8 °F - 48.2 °F 88% 29.87 in 10.0 mi SSE 4.6 mph - N/A   Overcast
7:16 PM 51.8 °F - 48.2 °F 88% 29.86 in 10.0 mi SSE 6.9 mph - N/A   Overcast
7:56 PM 51.8 °F - 48.2 °F 88% 29.86 in 10.0 mi SSE 8.1 mph - N/A   Mostly Cloudy
8:16 PM 51.8 °F - 46.4 °F 82% 29.86 in 10.0 mi SE 5.8 mph - N/A   Overcast
8:36 PM 51.8 °F - 46.4 °F 82% 29.86 in 10.0 mi SE 6.9 mph - N/A   Overcast
8:56 PM 51.8 °F - 46.4 °F 82% 29.86 in 10.0 mi SE 5.8 mph - N/A   Overcast
9:36 PM 50.0 °F - 46.4 °F 87% 29.87 in 10.0 mi SSE 8.1 mph - 0.01 in   Overcast
9:56 PM 50.0 °F - 46.4 °F 87% 29.86 in 10.0 mi SSE 5.8 mph - 0.01 in   Overcast
10:16 PM 50.0 °F - 46.4 °F 87% 29.86 in 10.0 mi SSE 4.6 mph - N/A   Overcast
10:36 PM 48.2 °F - 46.4 °F 93% 29.86 in 10.0 mi SSE 6.9 mph - N/A   Overcast
10:56 PM 48.2 °F - 46.4 °F 93% 29.86 in 9.0 mi SSE 6.9 mph - N/A   Mostly Cloudy
11:16 PM 48.2 °F - 46.4 °F 93% 29.87 in 10.0 mi SSE 5.8 mph - N/A   Overcast
11:36 PM 48.2 °F - 46.4 °F 93% 29.87 in 8.0 mi SE 6.9 mph - N/A   Overcast
11:56 PM 48.2 °F - 46.4 °F 93% 29.87 in 10.0 mi SE 6.9 mph - N/A   Overcast